Weather History for KWWD - February, 2013

Change the Weather History Date:

Wednesday, February 20, 2013

  Actual Average Record
Temperature  
Mean Temperature 34 °F -  
Max Temperature 39 °F 42 °F 60 °F (2001)
Min Temperature 28 °F 30 °F 3 °F (2015)
Degree Days  
Heating Degree Days 32    
Moisture  
Dew Point 17 °F    
Average Humidity 49    
Maximum Humidity 75    
Minimum Humidity 43    
Precipitation  
Precipitation 0.00 in - - ()
Sea Level Pressure  
Sea Level Pressure 29.96 in    
Wind  
Wind Speed 13 mph (WNW)    
Max Wind Speed 20 mph    
Max Gust Speed 31 mph    
Visibility 10 miles    
Events      
Averages and records for this station are not official NWS values.
T = Trace of Precipitation, MM = Missing Value Source: NWS Daily Summary

Daily Weather History Graph

Daily Weather History Graph

Search for Another Location

Airport or City:

Trip Planner

Search our weather history database for the weather conditions in past years. The results will help you decide how hot, cold, wet, or windy it might be!

Date:

Astronomy

Feb. 20, 2013 Rise Set
Actual Time 6:44 AM EST 5:42 PM EST
Civil Twilight 6:17 AM EST 6:09 PM EST
Nautical Twilight 5:46 AM EST 6:41 PM EST
Astronomical Twilight 5:15 AM EST 7:11 PM EST
Moon 1:03 PM EST (2/20) 3:01 AM EST (2/20)
Length of Visible Light 11h 52m
Length of Day
10h 58m
Waxing Gibbous, 76% of the Moon is Illuminated
Feb 20
Waxing Gibbous
Feb 25
Full
Mar 4
Last Quarter
Mar 11
New
Mar 19
First Quarter

Hourly Weather History & Observations

Time (EST) Temp. Windchill Dew Point Humidity Pressure Visibility Wind Dir Wind Speed Gust Speed Precip Events Conditions
12:15 AM 39.2 °F 34.2 °F 28.4 °F 65% 29.82 in 10.0 mi WNW 6.9 mph - N/A   Clear
12:35 AM 39.2 °F 35.0 °F 30.2 °F 70% 29.82 in 10.0 mi NW 5.8 mph - N/A   Clear
12:55 AM 37.4 °F 30.3 °F 30.2 °F 75% 29.82 in 10.0 mi NW 10.4 mph - N/A   Clear
1:15 AM 39.2 °F 31.2 °F 24.8 °F 56% 29.83 in 10.0 mi WNW 13.8 mph 20.7 mph N/A   Clear
1:35 AM 37.4 °F 29.8 °F 24.8 °F 60% 29.84 in 10.0 mi WNW 11.5 mph 18.4 mph N/A   Clear
1:55 AM 37.4 °F 31.4 °F 24.8 °F 60% 29.85 in 10.0 mi WNW 8.1 mph 17.3 mph N/A   Clear
2:15 AM 37.4 °F 30.3 °F 23.0 °F 56% 29.85 in 10.0 mi WNW 10.4 mph 16.1 mph N/A   Clear
2:35 AM 37.4 °F 29.8 °F 21.2 °F 52% 29.85 in 10.0 mi WNW 11.5 mph 20.7 mph N/A   Clear
2:55 AM 37.4 °F 30.3 °F 21.2 °F 52% 29.85 in 10.0 mi WNW 10.4 mph 17.3 mph N/A   Clear
3:15 AM 37.4 °F 28.5 °F 21.2 °F 52% 29.85 in 10.0 mi WNW 15.0 mph 21.9 mph N/A   Clear
3:35 AM 37.4 °F 28.5 °F 21.2 °F 52% 29.85 in 10.0 mi NW 15.0 mph 20.7 mph N/A   Clear
3:55 AM 35.6 °F 26.6 °F 21.2 °F 56% 29.85 in 10.0 mi WNW 13.8 mph 24.2 mph N/A   Clear
4:15 AM 35.6 °F 27.1 °F 19.4 °F 52% 29.85 in 10.0 mi NW 12.7 mph 20.7 mph N/A   Clear
4:35 AM 35.6 °F 27.5 °F 21.2 °F 56% 29.86 in 10.0 mi WNW 11.5 mph 18.4 mph N/A   Clear
4:55 AM 35.6 °F 26.6 °F 19.4 °F 52% 29.87 in 10.0 mi WNW 13.8 mph 24.2 mph N/A   Clear
5:15 AM 35.6 °F 26.2 °F 19.4 °F 52% 29.87 in 10.0 mi WNW 15.0 mph 23.0 mph N/A   Clear
5:35 AM 35.6 °F 26.2 °F 17.6 °F 48% 29.88 in 10.0 mi WNW 15.0 mph 24.2 mph N/A   Clear
5:55 AM 33.8 °F 23.5 °F 19.4 °F 56% 29.89 in 10.0 mi WNW 16.1 mph 23.0 mph N/A   Clear
6:15 AM 33.8 °F 24.3 °F 14.0 °F 44% 29.90 in 10.0 mi WNW 13.8 mph 26.5 mph N/A   Clear
6:35 AM 33.8 °F 23.9 °F 15.8 °F 48% 29.92 in 10.0 mi WNW 15.0 mph 24.2 mph N/A   Clear
6:55 AM 33.8 °F 25.3 °F 15.8 °F 48% 29.92 in 10.0 mi WNW 11.5 mph 23.0 mph N/A   Clear
7:15 AM 33.8 °F 24.8 °F 15.8 °F 48% 29.93 in 10.0 mi WNW 12.7 mph 23.0 mph N/A   Clear
7:35 AM 33.8 °F 25.3 °F 15.8 °F 48% 29.94 in 10.0 mi WNW 11.5 mph 19.6 mph N/A   Clear
7:55 AM 33.8 °F 23.2 °F 15.8 °F 48% 29.95 in 10.0 mi WNW 17.3 mph 24.2 mph N/A   Clear
8:15 AM 33.8 °F 24.3 °F 15.8 °F 48% 29.95 in 10.0 mi WNW 13.8 mph 25.3 mph N/A   Clear
8:35 AM 33.8 °F 23.9 °F 15.8 °F 48% 29.95 in 10.0 mi NW 15.0 mph 21.9 mph N/A   Clear
8:55 AM 35.6 °F 27.1 °F 15.8 °F 44% 29.96 in 10.0 mi WNW 12.7 mph 20.7 mph N/A   Clear
9:15 AM 33.8 °F 23.5 °F 15.8 °F 48% 29.96 in 10.0 mi WNW 16.1 mph 23.0 mph N/A   Scattered Clouds
9:35 AM 35.6 °F 25.5 °F 17.6 °F 48% 29.96 in 10.0 mi West 17.3 mph 24.2 mph N/A   Mostly Cloudy
10:15 AM 35.6 °F 25.2 °F 17.6 °F 48% 29.97 in 10.0 mi West 18.4 mph 26.5 mph N/A   Overcast
10:35 AM 35.6 °F 27.1 °F 17.6 °F 48% 29.97 in 10.0 mi WNW 12.7 mph 29.9 mph N/A   Mostly Cloudy
10:55 AM 35.6 °F 26.2 °F 17.6 °F 48% 29.97 in 10.0 mi WNW 15.0 mph 23.0 mph N/A   Partly Cloudy
11:15 AM 35.6 °F 25.5 °F 17.6 °F 48% 29.97 in 10.0 mi West 17.3 mph 24.2 mph N/A   Partly Cloudy
11:35 AM 35.6 °F 25.2 °F 15.8 °F 44% 29.98 in 10.0 mi WNW 18.4 mph 29.9 mph N/A   Mostly Cloudy
11:55 AM 33.8 °F 22.8 °F 15.8 °F 48% 29.98 in 10.0 mi West 18.4 mph 26.5 mph N/A   Overcast
12:15 PM 33.8 °F 23.9 °F 14.0 °F 44% 29.98 in 10.0 mi West 15.0 mph 31.1 mph N/A   Mostly Cloudy
12:35 PM 35.6 °F 25.2 °F 15.8 °F 44% 29.97 in 10.0 mi WNW 18.4 mph 24.2 mph N/A   Partly Cloudy
12:55 PM 33.8 °F 23.2 °F 15.8 °F 48% 29.97 in 10.0 mi WNW 17.3 mph 27.6 mph N/A   Partly Cloudy
1:15 PM 33.8 °F 23.9 °F 14.0 °F 44% 29.96 in 10.0 mi West 15.0 mph 25.3 mph N/A   Mostly Cloudy
1:35 PM 33.8 °F 23.9 °F 15.8 °F 48% 29.96 in 10.0 mi WNW 15.0 mph 20.7 mph N/A   Overcast
1:55 PM 35.6 °F 25.5 °F 15.8 °F 44% 29.96 in 10.0 mi West 17.3 mph 25.3 mph N/A   Scattered Clouds
2:15 PM 35.6 °F 25.5 °F 17.6 °F 48% 29.96 in 10.0 mi WNW 17.3 mph 25.3 mph N/A   Scattered Clouds
2:35 PM 35.6 °F 26.6 °F 15.8 °F 44% 29.96 in 10.0 mi WNW 13.8 mph 28.8 mph N/A   Scattered Clouds
2:55 PM 35.6 °F 24.8 °F 15.8 °F 44% 29.96 in 10.0 mi West 19.6 mph 29.9 mph N/A   Mostly Cloudy
3:15 PM 35.6 °F 25.2 °F 15.8 °F 44% 29.97 in 10.0 mi WNW 18.4 mph 26.5 mph N/A   Scattered Clouds
3:35 PM 35.6 °F 25.5 °F 15.8 °F 44% 29.98 in 10.0 mi WNW 17.3 mph 28.8 mph N/A   Mostly Cloudy
3:55 PM 33.8 °F 24.8 °F 15.8 °F 48% 29.98 in 10.0 mi WNW 12.7 mph 25.3 mph N/A   Mostly Cloudy
4:15 PM 35.6 °F 26.6 °F 15.8 °F 44% 29.98 in 10.0 mi WNW 13.8 mph 26.5 mph N/A   Scattered Clouds
4:35 PM 33.8 °F 25.3 °F 15.8 °F 48% 29.99 in 10.0 mi WNW 11.5 mph 24.2 mph N/A   Partly Cloudy
4:55 PM 33.8 °F 23.9 °F 15.8 °F 48% 30.00 in 10.0 mi WNW 15.0 mph 25.3 mph N/A   Clear
5:15 PM 33.8 °F 23.9 °F 15.8 °F 48% 30.00 in 10.0 mi WNW 15.0 mph 20.7 mph N/A   Clear
5:35 PM 33.8 °F 24.8 °F 14.0 °F 44% 30.01 in 10.0 mi NW 12.7 mph 25.3 mph N/A   Clear
5:55 PM 32.0 °F 23.0 °F 12.2 °F 44% 30.01 in 10.0 mi NW 11.5 mph 21.9 mph N/A   Clear
6:15 PM 32.0 °F 21.6 °F 14.0 °F 48% 30.03 in 10.0 mi WNW 15.0 mph 23.0 mph N/A   Clear
6:35 PM 30.2 °F 19.3 °F 12.2 °F 47% 30.03 in 10.0 mi WNW 15.0 mph 24.2 mph N/A   Clear
6:55 PM 30.2 °F 18.1 °F 14.0 °F 51% 30.03 in 10.0 mi NW 18.4 mph 26.5 mph N/A   Clear
7:15 PM 30.2 °F 19.8 °F 12.2 °F 47% 30.04 in 10.0 mi NW 13.8 mph 27.6 mph N/A   Clear
7:35 PM 30.2 °F 19.8 °F 10.4 °F 44% 30.06 in 10.0 mi WNW 13.8 mph 29.9 mph N/A   Clear
7:55 PM 30.2 °F 19.3 °F 10.4 °F 44% 30.06 in 10.0 mi WNW 15.0 mph 25.3 mph N/A   Clear
8:15 PM 30.2 °F 20.2 °F 10.4 °F 44% 30.07 in 10.0 mi WNW 12.7 mph 23.0 mph N/A   Clear
8:35 PM 30.2 °F 18.1 °F 10.4 °F 44% 30.07 in 10.0 mi WNW 18.4 mph 24.2 mph N/A   Clear
8:55 PM 28.4 °F 17.5 °F 8.6 °F 43% 30.08 in 10.0 mi WNW 13.8 mph 25.3 mph N/A   Clear
9:15 PM 28.4 °F 17.5 °F 8.6 °F 43% 30.09 in 10.0 mi NW 13.8 mph 27.6 mph N/A   Clear
9:35 PM 28.4 °F 17.0 °F 10.4 °F 47% 30.09 in 10.0 mi WNW 15.0 mph 27.6 mph N/A   Clear
9:55 PM 28.4 °F 16.6 °F 10.4 °F 47% 30.09 in 10.0 mi WNW 16.1 mph 24.2 mph N/A   Clear
10:15 PM 28.4 °F 17.0 °F 8.6 °F 43% 30.09 in 10.0 mi WNW 15.0 mph 27.6 mph N/A   Clear
10:35 PM 28.4 °F 17.5 °F 10.4 °F 47% 30.09 in 10.0 mi WNW 13.8 mph 26.5 mph N/A   Clear
11:55 PM 28.4 °F 19.1 °F 10.4 °F 47% 30.10 in 10.0 mi WNW 10.4 mph 21.9 mph N/A   Clear